Preview of NWS' New Version of Forecast
This preview is not operational and should not be used for support decisions.

Regional Weather Roundup (RWR)

Issued by National Weather Service (NWS)

                            
000
ASPQ40 PGUM 152110
RWRPQ 
WEATHER ROUNDUP FOR THE MARIANAS AND MICRONESIA
NATIONAL WEATHER SERVICE TIYAN GU
700 AM CHST TUE OCT 16 2018

GUZ001>004-152200-
MARIANA ISLANDS-
  
CITY           SKY/WX    TMP DP  RH WIND       PRES   REMARKS
GUAM AIRPORT   CLOUDY    81  81 100 CALM      29.87R HX  91           
ANDERSEN AFB   PTSUNNY   77  75  94 S9        29.88R                  
ROTA AIRPORT   PTSUNNY   79  75  89 SE6       29.86R                  
TINIAN AP      PTSUNNY   75  75 100 SE10      29.87R                  
SAIPAN AP      MOSUNNY   79  77  94 SE9       29.88R                  

$$

PMZ161-152200-
REPUBLIC OF PALAU-
  
CITY           SKY/WX    TMP DP  RH WIND       PRES   REMARKS
KOROR AP       NOT AVBL                                               
KOROR WSO      NOT AVBL                                               

$$

PMZ171>174-152200-
FEDERATED STATES OF MICRONESIA-
  
CITY           SKY/WX    TMP DP  RH WIND       PRES   REMARKS
YAP AIRPORT    MOCLDY    81  77  89 CALM      29.81R                  
CHUUK AP       MOSUNNY   84  75  74 VRB5      29.84R HX  92           
POHNPEI AP     NOT AVBL                                               
POHNPEI WSO    PTSUNNY   82  77  83 SE3       29.86R HX  91           
KOSRAE AP      PTSUNNY   84  77  79 VRB3      29.83R HX  94           

$$

PMZ181-152200-
REPUBLIC OF THE MARSHALL ISLANDS-
  
CITY           SKY/WX    TMP DP  RH WIND       PRES   REMARKS
KWAJALEIN AP   SUNNY     81  79  94 CALM      29.83S                  
MAJURO AP      PTSUNNY   86  77  74 VRB3      29.84  HX  97           
MAJURO WSO     MOSUNNY   86  77  74 E5        29.83R HX  97           

$$